Weather in La Molina

Spain     42°20′41″N   1°57′18″E
temp.,
°C
wind,
m/s
gust,
m/s
humid.,
%
clouds,
%
prec.,
mm/h
press.,
hPa
HPBL,
m
19 september, sun
sun1923:00+12nw229477 3.2 101536
02:00+10nnw21891 5.8 101514
05:00+8n219213 0.0 101736
08:00+7n22912 0.0 101929
11:00+14sw01590 0.0 1018649
14:00+18s334614 0.0 10171761
17:00+17sse325644 0.1 10171233
20:00+12se117953 0.3 101820
20 september, mon
mon2023:00+10nnw11928 0.4 102011
02:00+8nnw22890 0.5 102017
05:00+7n228658 0.0 101922
08:00+8n2284100 0.0 101925
11:00+15se116074 0.1 1018864
14:00+13n1176100 2.3 1019596
17:00+10nw2293100 3.3 101962
20:00+9wnw1193100 6.7 102035
21 september, tue
tue2123:00+8n229032 1.9 102239
02:00+6nnw3391100 1.9 102456
05:00+5nnw33900 0.0 102346
08:00+5nnw33880 0.0 102448
11:00+13nnw11527 0.0 1022642
14:00+15se1248100 0.1 10211685
17:00+11nnw2275100 0.3 1021137
20:00+9nnw218022 0.5 102213
22 september, wed
wed2223:00+6n3285100 0.0 102433
02:00+8nnw228198 0.0 102325
05:00+7n328494 0.0 102240
08:00+6n338780 0.0 102244
11:00+14sse0151100 0.0 1020759
14:00+16sse235095 0.1 10201632
17:00+17sse234725 0.0 10171684
20:00+11ese118144 0.2 101911
23 september, thu
thu2323:00+9n22900 0.2 102019
02:00+8n32890 0.2 102032
05:00+8n32850 0.0 102035
08:00+7nnw32850 0.0 102035
11:00+17n11470 0.0 1019648
14:00+20s22382 0.0 10181832
17:00+19s324468 0.0 10171762
20:00+13se117868 0.1 101911